Location: Andrest
(43.3200°N, 0.0641°E)
Time: 22:00:24
(UTC+00:00)

SL-8 Rocket - Pass Details

Date: 23 April 2021
Orbit: 958 x 989 km, 82.9° (Epoch: 16 May)

Event Time Altitude Azimuth Distance (km) Brightness Sun altitude
Rises 01:10:13 0° 350° (N) 3,698 7.8 -31.7°
Reaches altitude 10° 01:12:45 10° 349° (N) 2,749 7.0 -31.6°
Enters shadow 01:18:17 67° 317° (NW) 1,069 4.1 -31.2°
